When you browse on this site, cookies collect data to enhance your experience and personalize the content and advertising you see.
Visit our Privacy Policy to learn more. By continuing to use the site, you agree to this use of cookies and data.
  • In Portugal
  • List of Countries
  • For 7 days
  • Water Temperature
  • Satellite Maps
  • Weather Map
  • Weather Widgets
  • user-avatar
    Login

    Hourly Weather Kalemie

    Today, 25 May, Saturday

    Time Temperature Precipitation Wind Pressure Humidity
    00:00 +24°C° 0 mm 1 mps 706 mmHg 87%
    01:00 +23°C° 0 mm 1 mps 706 mmHg 86%
    02:00 +23°C° 0 mm 1 mps 706 mmHg 86%
    03:00 +23°C° 0 mm 1 mps 706 mmHg 86%
    04:00 +23°C° 0 mm 1 mps 706 mmHg 86%
    05:00 +22°C° 0 mm 1 mps 706 mmHg 85%
    06:00 +24°C° 0 mm 1 mps 706 mmHg 79%
    07:00 +26°C° 0 mm 1 mps 707 mmHg 72%
    08:00 +28°C° 0 mm 1 mps 707 mmHg 61%
    09:00 +30°C° 0 mm 1 mps 707 mmHg 54%
    10:00 +33°C° 0 mm 1 mps 707 mmHg 47%
    11:00 +36°C° 0 mm 1 mps 708 mmHg 40%
    12:00 +36°C° 0 mm 1 mps 707 mmHg 38%
    13:00 +36°C° 0 mm 1 mps 707 mmHg 37%
    14:00 +37°C° 0 mm 1 mps 706 mmHg 35%
    15:00 +36°C° 0 mm 1 mps 705 mmHg 40%
    16:00 +35°C° 0 mm 1 mps 705 mmHg 44%
    17:00 +34°C° 0 mm 1 mps 704 mmHg 49%
    18:00 +32°C° 0 mm 1 mps 705 mmHg 53%
    19:00 +30°C° 0 mm 1 mps 705 mmHg 56%
    20:00 +28°C° 0 mm 1 mps 705 mmHg 60%
    21:00 +27°C° 0 mm 1 mps 705 mmHg 61%
    22:00 +27°C° 0 mm 1 mps 705 mmHg 63%
    23:00 +26°C° 0 mm 1 mps 705 mmHg 64%

    Tomorrow, 26 May, Sunday

    Time Temperature Precipitation Wind Pressure Humidity
    00:00 +26°C° 0 mm 1 mps 705 mmHg 66%
    01:00 +25°C° 0 mm 1 mps 704 mmHg 68%
    02:00 +25°C° 0 mm 1 mps 704 mmHg 71%
    03:00 +25°C° 0 mm 1 mps 704 mmHg 72%
    04:00 +24°C° 0 mm 1 mps 704 mmHg 74%
    05:00 +22°C° 0 mm 0 mps 704 mmHg 76%
    06:00 +25°C° 0.1 mm 1 mps 705 mmHg 73%
    07:00 +27°C° 0.1 mm 1 mps 705 mmHg 70%
    08:00 +28°C° 0.1 mm 1 mps 706 mmHg 67%
    09:00 +31°C° 0 mm 1 mps 706 mmHg 59%
    10:00 +34°C° 0 mm 2 mps 706 mmHg 50%
    11:00 +36°C° 0 mm 2 mps 707 mmHg 42%
    12:00 +37°C° 0 mm 2 mps 706 mmHg 39%
    13:00 +38°C° 0 mm 2 mps 705 mmHg 36%
    14:00 +39°C° 0 mm 2 mps 705 mmHg 33%
    15:00 +37°C° 0 mm 2 mps 704 mmHg 39%
    16:00 +35°C° 0 mm 1 mps 704 mmHg 44%
    17:00 +34°C° 0 mm 1 mps 703 mmHg 49%
    18:00 +32°C° 0 mm 1 mps 704 mmHg 53%
    19:00 +31°C° 0 mm 1 mps 704 mmHg 58%
    20:00 +29°C° 0 mm 1 mps 704 mmHg 62%
    21:00 +28°C° 0.3 mm 1 mps 704 mmHg 67%
    22:00 +27°C° 0.3 mm 1 mps 704 mmHg 73%
    23:00 +26°C° 0.3 mm 1 mps 704 mmHg 78%

    Day after tomorrow, 27 May, Monday

    Time Temperature Precipitation Wind Pressure Humidity
    00:00 +25°C° 0.3 mm 1 mps 704 mmHg 80%
    01:00 +25°C° 0.3 mm 1 mps 704 mmHg 82%
    02:00 +24°C° 0.3 mm 1 mps 703 mmHg 84%
    03:00 +24°C° 0.4 mm 1 mps 703 mmHg 87%
    04:00 +23°C° 0.4 mm 2 mps 703 mmHg 90%
    05:00 +23°C° 0.4 mm 2 mps 703 mmHg 93%
    06:00 +24°C° 0 mm 2 mps 704 mmHg 89%
    07:00 +25°C° 0 mm 2 mps 705 mmHg 85%
    08:00 +26°C° 0 mm 3 mps 706 mmHg 81%
    09:00 +29°C° 0 mm 2 mps 706 mmHg 69%
    10:00 +32°C° 0 mm 2 mps 706 mmHg 56%
    11:00 +36°C° 0 mm 2 mps 707 mmHg 44%
    12:00 +36°C° 0 mm 2 mps 706 mmHg 44%
    13:00 +35°C° 0 mm 1 mps 705 mmHg 45%
    14:00 +35°C° 0 mm 1 mps 704 mmHg 45%
    15:00 +34°C° 0 mm 1 mps 704 mmHg 47%
    16:00 +34°C° 0 mm 1 mps 704 mmHg 49%
    17:00 +31°C° 0 mm 0 mps 703 mmHg 51%
    18:00 +30°C° 0 mm 0 mps 704 mmHg 52%
    19:00 +29°C° 0 mm 0 mps 704 mmHg 54%
    20:00 +28°C° 0 mm 0 mps 704 mmHg 56%
    21:00 +29°C° 0 mm 1 mps 704 mmHg 59%
    22:00 +28°C° 0 mm 1 mps 704 mmHg 62%
    23:00 +27°C° 0 mm 1 mps 704 mmHg 65%

    28 May, Tuesday

    Time Temperature Precipitation Wind Pressure Humidity
    00:00 +26°C° 0.1 mm 1 mps 704 mmHg 68%
    01:00 +26°C° 0.1 mm 1 mps 704 mmHg 71%
    02:00 +25°C° 0.1 mm 1 mps 703 mmHg 74%
    03:00 +24°C° 1.1 mm 1 mps 704 mmHg 81%
    04:00 +23°C° 1.1 mm 1 mps 704 mmHg 88%
    05:00 +21°C° 1.1 mm 2 mps 704 mmHg 95%
    06:00 +24°C° 0 mm 2 mps 705 mmHg 91%
    07:00 +25°C° 0 mm 2 mps 706 mmHg 87%
    08:00 +26°C° 0 mm 2 mps 707 mmHg 83%
    09:00 +28°C° 1 mm 2 mps 707 mmHg 73%
    10:00 +31°C° 1 mm 2 mps 707 mmHg 63%
    11:00 +34°C° 1 mm 2 mps 707 mmHg 53%
    12:00 +34°C° 0.2 mm 2 mps 706 mmHg 53%
    13:00 +34°C° 0.2 mm 2 mps 705 mmHg 53%
    14:00 +34°C° 0.2 mm 2 mps 705 mmHg 54%
    15:00 +31°C° 1.1 mm 2 mps 704 mmHg 62%
    16:00 +30°C° 1.1 mm 1 mps 704 mmHg 71%
    17:00 +28°C° 1.1 mm 1 mps 703 mmHg 80%
    18:00 +27°C° 0 mm 1 mps 704 mmHg 82%
    19:00 +26°C° 0 mm 1 mps 704 mmHg 83%
    20:00 +25°C° 0 mm 2 mps 705 mmHg 85%
    21:00 +25°C° 0.6 mm 2 mps 705 mmHg 87%
    22:00 +24°C° 0.6 mm 2 mps 705 mmHg 90%
    23:00 +23°C° 0.6 mm 2 mps 705 mmHg 92%

    29 May, Wednesday

    Time Temperature Precipitation Wind Pressure Humidity
    00:00 +23°C° 0 mm 2 mps 704 mmHg 93%
    01:00 +23°C° 0 mm 2 mps 704 mmHg 95%
    02:00 +21°C° 0 mm 2 mps 703 mmHg 96%
    03:00 +21°C° 0 mm 2 mps 704 mmHg 96%
    04:00 +22°C° 0 mm 1 mps 704 mmHg 96%
    05:00 +22°C° 0 mm 1 mps 704 mmHg 97%
    06:00 +23°C° 0.1 mm 2 mps 705 mmHg 93%
    07:00 +24°C° 0.1 mm 2 mps 706 mmHg 90%
    08:00 +25°C° 0.1 mm 2 mps 707 mmHg 86%
    09:00 +28°C° 0.1 mm 2 mps 707 mmHg 74%
    10:00 +30°C° 0.1 mm 2 mps 707 mmHg 63%
    11:00 +34°C° 0.1 mm 2 mps 707 mmHg 51%
    12:00 +34°C° 0.8 mm 2 mps 706 mmHg 51%
    13:00 +34°C° 0.8 mm 2 mps 705 mmHg 51%
    14:00 +34°C° 0.8 mm 2 mps 704 mmHg 50%
    15:00 +32°C° 0 mm 2 mps 704 mmHg 55%
    16:00 +31°C° 0 mm 2 mps 704 mmHg 59%
    17:00 +31°C° 0 mm 1 mps 704 mmHg 63%
    18:00 +29°C° 0.1 mm 1 mps 704 mmHg 68%
    19:00 +27°C° 0.1 mm 1 mps 704 mmHg 74%
    20:00 +26°C° 0.1 mm 1 mps 705 mmHg 79%
    21:00 +25°C° 0.8 mm 1 mps 705 mmHg 83%
    22:00 +24°C° 0.8 mm 1 mps 705 mmHg 87%
    23:00 +23°C° 0.8 mm 1 mps 705 mmHg 91%

    30 May, Thursday

    Time Temperature Precipitation Wind Pressure Humidity
    00:00 +23°C° 0 mm 1 mps 704 mmHg 91%
    01:00 +23°C° 0 mm 1 mps 704 mmHg 91%
    02:00 +23°C° 0 mm 1 mps 704 mmHg 91%
    03:00 +23°C° 0 mm 1 mps 704 mmHg 92%
    04:00 +21°C° 0 mm 2 mps 704 mmHg 93%
    05:00 +21°C° 0 mm 2 mps 704 mmHg 94%
    06:00 +24°C° 0 mm 2 mps 705 mmHg 90%
    07:00 +25°C° 0 mm 2 mps 706 mmHg 86%
    08:00 +26°C° 0 mm 2 mps 707 mmHg 82%
    09:00 +28°C° 1.7 mm 3 mps 707 mmHg 77%
    10:00 +29°C° 1.7 mm 3 mps 707 mmHg 71%
    11:00 +30°C° 1.7 mm 3 mps 707 mmHg 66%
    12:00 +31°C° 1.1 mm 3 mps 706 mmHg 63%
    13:00 +31°C° 1.1 mm 2 mps 706 mmHg 60%
    14:00 +32°C° 1.1 mm 1 mps 705 mmHg 57%
    15:00 +31°C° 1.1 mm 1 mps 705 mmHg 66%
    16:00 +29°C° 1.1 mm 1 mps 705 mmHg 74%
    17:00 +26°C° 1.1 mm 0 mps 704 mmHg 83%
    18:00 +25°C° 0 mm 0 mps 705 mmHg 86%
    19:00 +26°C° 0 mm 1 mps 705 mmHg 88%
    20:00 +25°C° 0 mm 1 mps 705 mmHg 90%
    21:00 +24°C° 0 mm 1 mps 705 mmHg 92%
    22:00 +24°C° 0 mm 1 mps 705 mmHg 93%
    23:00 +23°C° 0 mm 1 mps 705 mmHg 95%
    Show more